Location: Gälforsberget
(66.6500°N, 22.4167°E)
Time: 08:09:12
(UTC+00:00)

ALOS 2 - Pass Details

Date: 11 April 2026
Orbit: 630 x 632 km, 97.9° (Epoch: 9 May)

Event Time Altitude Azimuth Distance (km) Brightness Sun altitude
Exits shadow 20:51:38 19° 144° (SE) 1,524 3.9 -12.6°
Maximum altitude 20:54:47 70° 64° (ENE) 679 2.7 -12.8°
Drops below altitude 10° 20:59:11 10° 341° (NNW) 2,031 6.7 -12.9°
Sets 21:01:23 0° 339° (NNW) 2,943 8.1 -13.0°
